[Date Prev][Date Next][Thread Prev][Thread Next] - [Date Index][Thread Index][Author Index]
2 Line ISS Keps 5-30
- Subject: [sarex] 2 Line ISS Keps 5-30
- From: "Dave Larsen PhD" <doc@xxxxxxxxxxx>
- Date: Fri, 30 May 2003 03:32:52 -0700
ISS
1 25544U 98067A 03150.11366898 .00015947 00000-0 20205-3 0 585
2 25544 51.6296 111.0481 0005889 169.2627 7.2821 15.59629984258182
----
Via the sarex mailing list at AMSAT.ORG courtesy of AMSAT-NA.
To unsubscribe, send "unsubscribe sarex" to Majordomo@amsat.org
AMSAT Home